Weather History for KOGB - December, 2012

Change the Weather History Date:

Monday, December 24, 2012

  Actual Average Record
Temperature  
Mean Temperature 49 °F 46 °F  
Max Temperature 55 °F 57 °F - ()
Min Temperature 42 °F 36 °F - ()
Degree Days  
Heating Degree Days 16 19  
Month to date heating degree days 237 401  
Since 1 July heating degree days 687 770  
Cooling Degree Days 0 0  
Month to date cooling degree days 2 0  
Year to date cooling degree days 2322 2102  
Moisture  
Dew Point 40 °F    
Average Humidity 77    
Maximum Humidity 100    
Minimum Humidity 50    
Precipitation  
Precipitation 0.44 in 0.10 in - ()
Month to date precipitation 2.29 2.68  
Year to date precipitation 40.59 46.09  
Sea Level Pressure  
Sea Level Pressure 30.00 in    
Wind  
Wind Speed 2 mph (SSW)    
Max Wind Speed 13 mph    
Max Gust Speed 17 mph    
Visibility 8 miles    
Events Rain    
T = Trace of Precipitation, MM = Missing Value Source: NWS Daily Summary

Daily Weather History Graph

Daily Weather History Graph

Search for Another Location

Airport or City:

Trip Planner

Search our weather history database for the weather conditions in past years. The results will help you decide how hot, cold, wet, or windy it might be!

Date:

Astronomy

Dec. 24, 2012 Rise Set
Actual Time 7:25 AM EST 5:21 PM EST
Civil Twilight 6:57 AM EST 5:49 PM EST
Nautical Twilight 6:26 AM EST 6:20 PM EST
Astronomical Twilight 5:56 AM EST 6:50 PM EST
Moon 2:44 PM EST (12/24) 4:06 AM EST (12/24)
Length of Visible Light 10h 51m
Length of Day
9h 56m
Waxing Gibbous, 88% of the Moon is Illuminated
Dec 24
Waxing Gibbous
Dec 28
Full
Jan 4
Last Quarter
Jan 11
New
Jan 18
First Quarter

Hourly Weather History & Observations

Time (EST) Temp. Windchill Dew Point Humidity Pressure Visibility Wind Dir Wind Speed Gust Speed Precip Events Conditions
12:53 AM 45.0 °F 42.6 °F 33.1 °F 63% 30.09 in 10.0 mi South 4.6 mph - N/A   Overcast
1:53 AM 45.0 °F - 32.0 °F 60% 30.08 in 10.0 mi Calm Calm - N/A   Mostly Cloudy
2:53 AM 45.0 °F - 30.9 °F 58% 30.08 in 10.0 mi Calm Calm - N/A   Mostly Cloudy
3:53 AM 42.1 °F - 33.1 °F 70% 30.07 in 10.0 mi Calm Calm - N/A   Clear
4:53 AM 42.1 °F - 33.1 °F 70% 30.05 in 10.0 mi Calm Calm - N/A   Scattered Clouds
5:53 AM 44.1 °F - 33.1 °F 65% 30.05 in 10.0 mi Calm Calm - N/A   Clear
6:53 AM 42.1 °F 40.2 °F 33.1 °F 70% 30.07 in 10.0 mi South 3.5 mph - N/A   Clear
7:53 AM 43.0 °F - 33.1 °F 68% 30.05 in 10.0 mi Calm Calm - N/A   Clear
8:53 AM 45.0 °F - 34.0 °F 65% 30.06 in 10.0 mi Calm Calm - N/A   Clear
9:53 AM 48.9 °F - 35.1 °F 59% 30.06 in 10.0 mi South 4.6 mph - N/A   Clear
10:53 AM 52.0 °F - 33.1 °F 49% 30.03 in 10.0 mi SSW 5.8 mph - N/A   Mostly Cloudy
11:53 AM 54.0 °F - 35.1 °F 49% 30.00 in 10.0 mi SSW 5.8 mph - 0.00 in   Overcast
12:53 PM 54.0 °F - 34.0 °F 47% 29.99 in 10.0 mi Calm Calm - 0.00 in Rain Light Rain
1:53 PM 55.0 °F - 35.1 °F 47% 29.97 in 10.0 mi Calm Calm - 0.00 in   Overcast
2:53 PM 48.9 °F - 42.1 °F 77% 29.99 in 4.0 mi NNW 3.5 mph - 0.04 in Rain Rain
3:08 PM 48.2 °F - 42.8 °F 82% 30.00 in 2.0 mi Calm Calm - 0.04 in Rain Rain
3:26 PM 48.2 °F - 44.6 °F 87% 30.01 in 1.8 mi Calm Calm - 0.12 in Rain Heavy Rain
3:49 PM 46.4 °F - 44.6 °F 93% 29.99 in 2.0 mi Calm Calm - 0.22 in Rain Heavy Rain
3:53 PM 46.9 °F - 44.1 °F 90% 30.00 in 2.0 mi Calm Calm - 0.24 in Rain Heavy Rain
4:04 PM 46.4 °F - 44.6 °F 93% 30.00 in 1.5 mi Calm Calm - 0.05 in Rain Heavy Rain
4:12 PM 46.4 °F - 44.6 °F 93% 29.99 in 2.0 mi Calm Calm - 0.09 in Rain Heavy Rain
4:37 PM 48.2 °F - 44.6 °F 87% 29.93 in 5.0 mi SSE 11.5 mph - 0.15 in Rain Light Rain
4:53 PM 48.9 °F - 48.0 °F 97% 29.95 in 9.0 mi South 3.5 mph - 0.15 in Rain Light Rain
5:53 PM 48.9 °F - 46.9 °F 93% 29.94 in 10.0 mi South 6.9 mph - 0.00 in Rain Light Rain
6:53 PM 50.0 °F - 46.9 °F 89% 29.96 in 10.0 mi Calm Calm - 0.01 in   Overcast
7:53 PM 50.0 °F - 46.9 °F 89% 29.95 in 10.0 mi Calm Calm - 0.00 in   Overcast
8:53 PM 50.0 °F - 46.9 °F 89% 29.95 in 10.0 mi SSW 3.5 mph - N/A   Overcast
9:11 PM 50.0 °F - 46.4 °F 87% 29.96 in 10.0 mi Calm Calm - N/A   Overcast
9:53 PM 50.0 °F - 48.0 °F 93% 29.97 in 10.0 mi West 3.5 mph - N/A   Overcast
10:53 PM 51.1 °F - 48.0 °F 89% 29.97 in 10.0 mi Calm Calm - N/A   Overcast
11:32 PM 50.0 °F - 48.2 °F 94% 29.97 in 9.0 mi Calm Calm - N/A   Overcast
11:53 PM 50.0 °F - 48.0 °F 93% 29.97 in 7.0 mi Calm Calm - N/A   Overcast